Content
SEND FEEDBACK

Daily
Averages
Monthly
Summary
Spain

MÁLAGA, SPAIN


Home > Europe > Spain
Elevation: 23 feet     Latitude: 36 40N     Longitude: 004 29W

WEATHER
 
SELECT A DAY
Number of Records: 318,294;   Date Range: 7/1/96 - 7/26/14
 
SHARE

PRINT THIS DATA

[ ← Previous Day ]
WEATHER ALMANAC - JULY 8, 2013
[ Next Day → ]
[ °C ]   °F
We're sorry. There is no daily almanac available for Málaga, Spain on July 8, 2013.
WEATHER BY HOUR - JULY 8, 2013
[ °C ]   °F
Local TimeTemperatureDewpointHumidityBarometerVisibilityWind DirectionWind SpeedGust SpeedPrecipitationEventsConditions
12:30 AM73.4 °F57.2 °F57 %30.15 inSW (230°)1.2 mphClear
1:00 AM69.8 °F57.2 °F64 %30.15 inWNW (300°)2.3 mphClear
1:30 AM71.6 °F57.2 °F60 %30.15 inWest (270°)4.6 mphClear
2:00 AM72.0 °F57.0 °F50 %30.15 in19.0 miWest (270°)4.6 mph
2:00 AM71.6 °F57.2 °F60 %30.15 inWest (280°)4.6 mphClear
2:30 AM71.6 °F57.2 °F60 %30.15 inWest (280°)5.8 mphClear
3:00 AM69.8 °F57.2 °F64 %30.12 inWest (280°)5.8 mphClear
3:30 AM69.8 °F55.4 °F60 %30.12 inWNW (290°)5.8 mphClear
4:00 AM69.8 °F55.4 °F60 %30.12 inWNW (290°)8.1 mphClear
4:30 AM68.0 °F55.4 °F64 %30.12 inWNW (290°)6.9 mphClear
5:00 AM68.0 °F55.4 °F64 %30.09 inWest (280°)6.9 mphClear
5:30 AM68.0 °F53.6 °F60 %30.09 inWest (280°)4.6 mphClear
6:00 AM68.0 °F55.4 °F64 %30.09 inWNW (290°)8.1 mphClear
6:30 AM66.2 °F53.6 °F64 %30.09 inWNW (290°)9.2 mphClear
7:00 AM66.2 °F53.6 °F64 %30.09 inWNW (290°)10.4 mphClear
7:30 AM66.2 °F53.6 °F64 %30.09 inWNW (290°)10.4 mphClear
8:00 AM67.0 °F53.0 °F51 %30.12 in25.0 miWNW (290°)8.1 mph
8:00 AM66.2 °F51.8 °F60 %30.09 inWNW (290°)8.1 mphClear
8:30 AM68.0 °F53.6 °F60 %30.09 inWNW (290°)10.4 mphClear
9:00 AM68.0 °F53.6 °F60 %30.12 inWNW (300°)9.2 mphClear
9:30 AM73.4 °F53.6 °F50 %30.12 inWNW (300°)6.9 mphClear
10:00 AM77.0 °F51.8 °F41 %30.12 inWNW (300°)4.6 mphClear
10:30 AM78.8 °F51.8 °F39 %30.12 inVariable2.3 mphClear
11:00 AM82.4 °F50.0 °F32 %30.12 inVariable1.2 mphClear
11:30 AM82.4 °F51.8 °F35 %30.12 inESE (120°)5.8 mphClear
12:00 PM82.4 °F48.2 °F30 %30.12 inSE (130°)8.1 mphClear
12:30 PM82.4 °F50.0 °F32 %30.12 inSE (130°)8.1 mphClear
1:00 PM84.2 °F50.0 °F30 %30.12 inSE (130°)8.1 mphClear
1:30 PM84.2 °F50.0 °F30 %30.12 inSE (140°)9.2 mphClear
2:00 PM87.0 °F54.0 °F22 %30.12 in25.0 miSE (130°)10.4 mph
2:00 PM84.2 °F51.8 °F33 %30.12 inSE (130°)10.4 mphClear
2:30 PM84.2 °F50.0 °F30 %30.12 inSSE (160°)10.4 mphClear
3:00 PM82.4 °F53.6 °F37 %30.09 inSSE (150°)11.5 mphClear
3:30 PM82.4 °F55.4 °F39 %30.09 inSSE (150°)11.5 mphClear
4:00 PM82.4 °F55.4 °F39 %30.09 inSE (140°)10.4 mphClear
4:30 PM80.6 °F57.2 °F45 %30.09 inSE (140°)6.9 mphClear
5:00 PM80.6 °F57.2 °F45 %30.09 inSE (130°)5.8 mphClear
5:30 PM80.6 °F57.2 °F45 %30.09 inESE (110°)5.8 mphClear
6:00 PM80.6 °F55.4 °F42 %30.09 inSE (140°)5.8 mphClear
6:30 PM80.6 °F55.4 °F42 %30.06 inSE (140°)4.6 mphClear
7:00 PM80.6 °F53.6 °F39 %30.06 inESE (110°)3.5 mphClear
7:30 PM80.6 °F53.6 °F39 %30.06 inESE (110°)4.6 mphClear
8:00 PM78.8 °F55.4 °F44 %30.06 inSE (130°)5.8 mphClear
8:30 PM78.8 °F55.4 °F44 %30.06 inSE (130°)5.8 mphClear
9:00 PM78.8 °F53.6 °F42 %30.06 inESE (120°)3.5 mphClear
9:30 PM77.0 °F53.6 °F44 %30.06 inVariable2.3 mphClear
10:00 PM77.0 °F53.6 °F44 %30.06 inSouth (180°)3.5 mphClear
10:30 PM77.0 °F53.6 °F44 %30.09 inVariable1.2 mphClear
11:00 PM77.0 °F53.6 °F44 %30.09 inCalmClear
11:30 PM75.2 °F53.6 °F47 %30.09 inCalmClear
Hourly data recorded from LEMG, located miles away from Málaga, Spain







STORIES FROM OUR PARTNERS